CPA3301 WADD-WIII

Flight info

Callsign CPA3301
Flight time 1h 23m
Altitude 38000
Route OKAN1B OKANG T4 FARIZ T6 KURUS KURU2G
Aircraft A346/H-VGDW/C

Departure

Time 2026-05-06 15:10
Airport Denpasar I Gusti Ngurah Rai International Airport (WADD)

Arrival

Time 2026-05-06 16:34
Airport Soekarno-Hatta International Airport (WIII)
Time Latitude Longitude Altitude Speed Heading
2026-05-06 14:54 -8.74534 115.17206 41 ft 0 kts 358°
2026-05-06 15:00 -8.74548 115.17206 41 ft 1 kts 358°
2026-05-06 15:00 -8.74573 115.17207 41 ft 4 kts 358°
2026-05-06 15:00 -8.74600 115.17208 37 ft 4 kts 358°
2026-05-06 15:00 -8.74624 115.17210 38 ft 4 kts 348°
2026-05-06 15:01 -8.74646 115.17219 38 ft 4 kts 323°
2026-05-06 15:01 -8.74659 115.17234 36 ft 4 kts 288°
2026-05-06 15:01 -8.74661 115.17257 37 ft 4 kts 263°
2026-05-06 15:01 -8.74657 115.17284 40 ft 4 kts 262°
2026-05-06 15:02 -8.74655 115.17300 37 ft 0 kts 268°
2026-05-06 15:04 -8.74656 115.17282 40 ft 4 kts 268°
2026-05-06 15:04 -8.74657 115.17259 38 ft 1 kts 268°
2026-05-06 15:05 -8.74658 115.17231 36 ft 7 kts 268°
2026-05-06 15:05 -8.74660 115.17168 40 ft 11 kts 268°
2026-05-06 15:05 -8.74664 115.17080 40 ft 14 kts 268°
2026-05-06 15:05 -8.74668 115.16970 40 ft 18 kts 268°
2026-05-06 15:06 -8.74673 115.16835 40 ft 21 kts 268°
2026-05-06 15:06 -8.74680 115.16680 41 ft 23 kts 268°
2026-05-06 15:06 -8.74686 115.16518 41 ft 22 kts 267°
2026-05-06 15:06 -8.74694 115.16358 41 ft 24 kts 267°
2026-05-06 15:07 -8.74702 115.16180 41 ft 26 kts 268°
2026-05-06 15:07 -8.74710 115.15987 41 ft 28 kts 268°
2026-05-06 15:07 -8.74717 115.15780 41 ft 30 kts 267°
2026-05-06 15:07 -8.74727 115.15569 41 ft 30 kts 268°
2026-05-06 15:08 -8.74730 115.15469 41 ft 6 kts 266°
2026-05-06 15:08 -8.74746 115.15419 40 ft 9 kts 232°
2026-05-06 15:08 -8.74819 115.15392 38 ft 14 kts 184°
2026-05-06 15:08 -8.74885 115.15407 37 ft 7 kts 122°
2026-05-06 15:09 -8.74894 115.15465 37 ft 9 kts 88°
2026-05-06 15:09 -8.74894 115.15474 37 ft 0 kts 88°
2026-05-06 15:09 -8.74894 115.15488 37 ft 12 kts 88°
2026-05-06 15:10 -8.74880 115.15833 37 ft 85 kts 87°
2026-05-06 15:10 -8.74846 115.16655 37 ft 146 kts 88°
2026-05-06 15:10 -8.74787 115.17796 364 ft 166 kts 90°
2026-05-06 15:10 -8.74741 115.18956 1021 ft 165 kts 90°
2026-05-06 15:11 -8.74704 115.20120 1752 ft 164 kts 89°
2026-05-06 15:11 -8.74669 115.21259 2482 ft 161 kts 90°
2026-05-06 15:11 -8.74620 115.22424 2897 ft 171 kts 89°
2026-05-06 15:11 -8.74558 115.23665 3302 ft 182 kts 88°
2026-05-06 15:12 -8.74503 115.24996 3713 ft 197 kts 88°
2026-05-06 15:12 -8.74443 115.26448 4105 ft 216 kts 89°
2026-05-06 15:12 -8.74378 115.28032 4521 ft 235 kts 89°
2026-05-06 15:12 -8.74309 115.29752 5026 ft 253 kts 89°
2026-05-06 15:13 -8.74225 115.31581 5629 ft 266 kts 84°
2026-05-06 15:13 -8.73583 115.33337 6398 ft 273 kts 52°
2026-05-06 15:13 -8.72070 115.34460 7217 ft 279 kts 22°
2026-05-06 15:13 -8.70137 115.34738 8037 ft 287 kts 355°
2026-05-06 15:14 -8.68244 115.34058 8829 ft 296 kts 327°
2026-05-06 15:14 -8.66816 115.32536 9663 ft 302 kts 307°
2026-05-06 15:14 -8.65585 115.30796 10408 ft 307 kts 306°
2026-05-06 15:14 -8.64304 115.28997 10862 ft 323 kts 307°
2026-05-06 15:15 -8.62946 115.27114 11226 ft 340 kts 307°
2026-05-06 15:15 -8.61509 115.25139 11583 ft 357 kts 306°
2026-05-06 15:15 -8.59996 115.23067 11897 ft 375 kts 306°
2026-05-06 15:15 -8.58408 115.20897 12215 ft 391 kts 306°
2026-05-06 15:16 -8.56759 115.18649 12722 ft 401 kts 306°
2026-05-06 15:16 -8.55081 115.16367 13425 ft 405 kts 306°
2026-05-06 15:16 -8.53394 115.14075 14116 ft 407 kts 306°
2026-05-06 15:16 -8.51694 115.11773 14760 ft 410 kts 305°
2026-05-06 15:17 -8.49976 115.09451 15365 ft 414 kts 305°
2026-05-06 15:17 -8.48249 115.07105 15980 ft 417 kts 305°
2026-05-06 15:17 -8.46530 115.04771 16593 ft 420 kts 305°
2026-05-06 15:17 -8.44778 115.02392 17208 ft 423 kts 305°
2026-05-06 15:18 -8.42993 114.99968 17794 ft 427 kts 305°
2026-05-06 15:18 -8.41206 114.97546 18338 ft 431 kts 305°
2026-05-06 15:18 -8.39433 114.95137 18841 ft 434 kts 305°
2026-05-06 15:18 -8.37622 114.92682 19364 ft 437 kts 305°
2026-05-06 15:19 -8.35801 114.90212 19853 ft 440 kts 305°
2026-05-06 15:19 -8.33965 114.87723 20361 ft 442 kts 305°
2026-05-06 15:19 -8.32122 114.85231 20880 ft 444 kts 305°
2026-05-06 15:19 -8.30265 114.82712 21382 ft 447 kts 306°
2026-05-06 15:20 -8.28402 114.80187 21842 ft 449 kts 306°
2026-05-06 15:20 -8.26526 114.77648 22320 ft 452 kts 305°
2026-05-06 15:20 -8.24640 114.75093 22784 ft 454 kts 306°
2026-05-06 15:20 -8.22746 114.72527 23198 ft 457 kts 306°
2026-05-06 15:21 -8.20834 114.69937 23575 ft 461 kts 306°
2026-05-06 15:21 -8.18934 114.67367 23895 ft 464 kts 306°
2026-05-06 15:21 -8.16997 114.64749 24265 ft 466 kts 306°
2026-05-06 15:21 -8.15049 114.62118 24634 ft 468 kts 306°
2026-05-06 15:22 -8.13095 114.59475 24972 ft 471 kts 306°
2026-05-06 15:22 -8.11126 114.56813 25330 ft 474 kts 306°
2026-05-06 15:22 -8.09146 114.54138 25678 ft 476 kts 306°
2026-05-06 15:22 -8.07156 114.51448 26044 ft 478 kts 305°
2026-05-06 15:23 -8.05157 114.48747 26404 ft 481 kts 305°
2026-05-06 15:23 -8.03149 114.46034 26754 ft 483 kts 305°
2026-05-06 15:23 -8.01132 114.43308 27087 ft 485 kts 305°
2026-05-06 15:23 -7.99105 114.40571 27445 ft 488 kts 305°
2026-05-06 15:24 -7.97070 114.37822 27802 ft 490 kts 305°
2026-05-06 15:24 -7.95017 114.35051 28158 ft 492 kts 305°
2026-05-06 15:24 -7.92995 114.32321 28628 ft 491 kts 305°
2026-05-06 15:24 -7.90953 114.29565 29148 ft 489 kts 304°
2026-05-06 15:25 -7.88912 114.26815 29681 ft 488 kts 304°
2026-05-06 15:25 -7.86881 114.24076 30143 ft 486 kts 304°
2026-05-06 15:25 -7.84860 114.21349 30574 ft 485 kts 304°
2026-05-06 15:25 -7.82844 114.18629 31026 ft 483 kts 304°
2026-05-06 15:26 -7.80832 114.15915 31490 ft 481 kts 304°
2026-05-06 15:26 -7.78827 114.13214 31971 ft 479 kts 304°
2026-05-06 15:26 -7.76828 114.10519 32452 ft 477 kts 304°
2026-05-06 15:26 -7.74890 114.07805 32918 ft 475 kts 302°
2026-05-06 15:27 -7.73068 114.05034 33423 ft 472 kts 302°
2026-05-06 15:27 -7.71271 114.02271 33904 ft 470 kts 302°
2026-05-06 15:27 -7.69481 113.99515 34343 ft 469 kts 302°
2026-05-06 15:27 -7.67695 113.96767 34761 ft 467 kts 302°
2026-05-06 15:28 -7.65932 113.94058 35154 ft 466 kts 302°
2026-05-06 15:28 -7.64150 113.91320 35545 ft 466 kts 302°
2026-05-06 15:28 -7.62374 113.88590 35909 ft 465 kts 302°
2026-05-06 15:28 -7.60599 113.85863 36251 ft 465 kts 302°
2026-05-06 15:29 -7.58819 113.83137 36610 ft 465 kts 302°
2026-05-06 15:29 -7.57040 113.80410 37001 ft 465 kts 302°
2026-05-06 15:29 -7.55265 113.77684 37300 ft 466 kts 302°
2026-05-06 15:29 -7.53476 113.74939 37533 ft 469 kts 302°
2026-05-06 15:30 -7.51678 113.72183 37802 ft 471 kts 302°
2026-05-06 15:30 -7.48071 113.66659 37877 ft 471 kts 302°
2026-05-06 15:31 -7.44454 113.61110 37881 ft 473 kts 302°
2026-05-06 15:31 -7.40832 113.55563 37880 ft 473 kts 302°
2026-05-06 15:32 -7.35420 113.47275 37879 ft 474 kts 302°
2026-05-06 15:32 -7.31787 113.41718 37878 ft 474 kts 302°
2026-05-06 15:33 -7.28156 113.36158 37877 ft 475 kts 303°
2026-05-06 15:33 -7.24514 113.30588 37880 ft 475 kts 303°
2026-05-06 15:34 -7.20864 113.25009 37879 ft 475 kts 303°
2026-05-06 15:34 -7.17221 113.19441 37877 ft 475 kts 303°
2026-05-06 15:35 -7.13603 113.13913 37877 ft 475 kts 303°
2026-05-06 15:35 -7.09961 113.08348 37879 ft 476 kts 303°
2026-05-06 15:36 -7.06308 113.02771 37877 ft 476 kts 303°
2026-05-06 15:36 -7.02658 112.97199 37876 ft 476 kts 303°
2026-05-06 15:37 -6.99004 112.91624 37881 ft 476 kts 303°
2026-05-06 15:37 -6.95383 112.86104 37879 ft 473 kts 303°
2026-05-06 15:38 -6.91755 112.80570 37880 ft 473 kts 303°
2026-05-06 15:38 -6.88118 112.75020 37882 ft 476 kts 303°
2026-05-06 15:39 -6.84463 112.69453 37880 ft 476 kts 303°
2026-05-06 15:39 -6.80813 112.63893 37879 ft 475 kts 303°
2026-05-06 15:40 -6.77161 112.58331 37878 ft 476 kts 303°
2026-05-06 15:40 -6.73507 112.52773 37879 ft 474 kts 303°
2026-05-06 15:41 -6.69861 112.47223 37879 ft 474 kts 303°
2026-05-06 15:41 -6.66215 112.41670 37878 ft 476 kts 303°
2026-05-06 15:42 -6.62578 112.36144 37878 ft 475 kts 303°
2026-05-06 15:42 -6.58933 112.30602 37878 ft 475 kts 303°
2026-05-06 15:43 -6.55282 112.25053 37881 ft 474 kts 303°
2026-05-06 15:43 -6.51635 112.19512 37882 ft 473 kts 303°
2026-05-06 15:44 -6.47997 112.13986 37880 ft 473 kts 303°
2026-05-06 15:44 -6.44353 112.08447 37878 ft 476 kts 303°
2026-05-06 15:45 -6.40691 112.02889 37880 ft 477 kts 303°
2026-05-06 15:45 -6.37034 111.97345 37881 ft 475 kts 303°
2026-05-06 15:46 -6.33999 111.92743 37880 ft 475 kts 303°
2026-05-06 15:46 -6.29752 111.86303 37878 ft 475 kts 303°
2026-05-06 15:47 -6.26681 111.81646 37879 ft 477 kts 303°
2026-05-06 15:47 -6.23034 111.76115 37875 ft 477 kts 303°
2026-05-06 15:48 -6.19367 111.70555 37876 ft 477 kts 303°
2026-05-06 15:48 -6.15701 111.65005 37876 ft 475 kts 303°
2026-05-06 15:49 -6.12040 111.59459 37878 ft 475 kts 303°
2026-05-06 15:49 -6.08388 111.53933 37881 ft 474 kts 303°
2026-05-06 15:50 -6.04757 111.48435 37879 ft 476 kts 303°
2026-05-06 15:50 -6.01091 111.42891 37877 ft 476 kts 303°
2026-05-06 15:51 -5.97411 111.37334 37879 ft 477 kts 303°
2026-05-06 15:51 -5.93740 111.31784 37879 ft 476 kts 303°
2026-05-06 15:52 -5.90620 111.25925 37882 ft 475 kts 291°
2026-05-06 15:52 -5.88789 111.19538 37883 ft 476 kts 279°
2026-05-06 15:53 -5.88323 111.12906 37883 ft 476 kts 268°
2026-05-06 15:53 -5.88939 111.06322 37884 ft 475 kts 263°
2026-05-06 15:54 -5.89696 110.99715 37882 ft 476 kts 263°
2026-05-06 15:54 -5.90443 110.93109 37880 ft 476 kts 263°
2026-05-06 15:55 -5.91183 110.86490 37880 ft 475 kts 263°
2026-05-06 15:55 -5.91919 110.79873 37877 ft 476 kts 263°
2026-05-06 15:56 -5.92653 110.73251 37879 ft 476 kts 263°
2026-05-06 15:56 -5.93387 110.66629 37879 ft 476 kts 264°
2026-05-06 15:57 -5.94115 110.60040 37878 ft 476 kts 264°
2026-05-06 15:57 -5.94847 110.53413 37879 ft 476 kts 264°
2026-05-06 15:58 -5.95577 110.46783 37879 ft 477 kts 264°
2026-05-06 15:58 -5.96285 110.40143 37877 ft 478 kts 265°
2026-05-06 15:59 -5.96522 110.33463 37881 ft 478 kts 270°
2026-05-06 15:59 -5.96526 110.26775 37879 ft 478 kts 270°
2026-05-06 16:00 -5.96521 110.20087 37881 ft 478 kts 270°
2026-05-06 16:00 -5.96518 110.13449 37881 ft 477 kts 270°
2026-05-06 16:01 -5.96516 110.06761 37881 ft 478 kts 270°
2026-05-06 16:01 -5.96513 110.00077 37879 ft 478 kts 270°
2026-05-06 16:02 -5.96510 109.93389 37879 ft 478 kts 270°
2026-05-06 16:02 -5.96506 109.86706 37879 ft 478 kts 270°
2026-05-06 16:03 -5.96500 109.80015 37879 ft 478 kts 270°
2026-05-06 16:03 -5.96495 109.73335 37879 ft 478 kts 270°
2026-05-06 16:04 -5.96488 109.66648 37879 ft 478 kts 270°
2026-05-06 16:04 -5.96481 109.59960 37882 ft 478 kts 270°
2026-05-06 16:05 -5.96472 109.53265 37882 ft 478 kts 270°
2026-05-06 16:05 -5.96464 109.46586 37882 ft 478 kts 270°
2026-05-06 16:06 -5.96454 109.39898 37884 ft 478 kts 270°
2026-05-06 16:06 -5.96444 109.33250 37885 ft 478 kts 270°
2026-05-06 16:07 -5.96432 109.26551 37881 ft 479 kts 270°
2026-05-06 16:07 -5.96420 109.19857 37882 ft 478 kts 270°
2026-05-06 16:08 -5.96406 109.13153 37882 ft 479 kts 270°
2026-05-06 16:08 -5.96392 109.06456 37886 ft 478 kts 270°
2026-05-06 16:09 -5.96377 108.99756 37885 ft 479 kts 270°
2026-05-06 16:09 -5.96362 108.93059 37885 ft 479 kts 270°
2026-05-06 16:10 -5.96345 108.86363 37862 ft 477 kts 270°
2026-05-06 16:10 -5.96337 108.83078 37456 ft 475 kts 270°
2026-05-06 16:10 -5.96329 108.79736 36536 ft 481 kts 270°
2026-05-06 16:11 -5.96320 108.76338 35569 ft 489 kts 270°
2026-05-06 16:11 -5.96311 108.72894 34683 ft 496 kts 270°
2026-05-06 16:11 -5.96302 108.69404 33820 ft 501 kts 270°
2026-05-06 16:11 -5.96290 108.65880 32887 ft 506 kts 270°
2026-05-06 16:12 -5.96277 108.62324 32024 ft 509 kts 270°
2026-05-06 16:12 -5.96264 108.58761 31174 ft 511 kts 270°
2026-05-06 16:12 -5.96251 108.55172 30331 ft 514 kts 270°
2026-05-06 16:12 -5.96240 108.51569 29405 ft 516 kts 270°
2026-05-06 16:13 -5.96230 108.47961 28541 ft 516 kts 270°
2026-05-06 16:13 -5.96226 108.44369 27891 ft 511 kts 270°
2026-05-06 16:13 -5.96227 108.40809 27276 ft 506 kts 270°
2026-05-06 16:13 -5.96227 108.37291 26793 ft 498 kts 270°
2026-05-06 16:14 -5.96226 108.33822 26218 ft 494 kts 270°
2026-05-06 16:14 -5.96223 108.30387 25776 ft 487 kts 270°
2026-05-06 16:14 -5.96219 108.27004 25387 ft 479 kts 270°
2026-05-06 16:14 -5.96215 108.23681 24988 ft 471 kts 270°
2026-05-06 16:15 -5.96210 108.20406 24617 ft 464 kts 270°
2026-05-06 16:15 -5.96206 108.17182 24242 ft 457 kts 270°
2026-05-06 16:15 -5.96201 108.14006 23908 ft 450 kts 270°
2026-05-06 16:15 -5.96196 108.10877 23567 ft 443 kts 270°
2026-05-06 16:16 -5.96190 108.07839 23232 ft 436 kts 270°
2026-05-06 16:16 -5.96184 108.04823 22995 ft 426 kts 270°
2026-05-06 16:16 -5.96179 108.01886 22878 ft 412 kts 270°
2026-05-06 16:16 -5.96174 107.99057 22881 ft 397 kts 270°
2026-05-06 16:17 -5.96173 107.96317 22692 ft 388 kts 270°
2026-05-06 16:17 -5.96174 107.93615 22349 ft 383 kts 270°
2026-05-06 16:17 -5.96176 107.90954 22017 ft 378 kts 270°
2026-05-06 16:17 -5.96177 107.88328 21698 ft 373 kts 270°
2026-05-06 16:18 -5.96177 107.85731 21378 ft 368 kts 270°
2026-05-06 16:18 -5.96177 107.83166 21058 ft 363 kts 270°
2026-05-06 16:18 -5.96176 107.80671 20758 ft 358 kts 270°
2026-05-06 16:18 -5.96176 107.78176 20452 ft 354 kts 269°
2026-05-06 16:19 -5.96175 107.75716 20154 ft 349 kts 269°
2026-05-06 16:19 -5.96175 107.73293 19878 ft 344 kts 270°
2026-05-06 16:19 -5.96175 107.70902 19601 ft 339 kts 270°
2026-05-06 16:19 -5.96174 107.68545 19326 ft 335 kts 270°
2026-05-06 16:20 -5.96172 107.66216 19049 ft 330 kts 269°
2026-05-06 16:20 -5.96171 107.63921 18781 ft 326 kts 269°
2026-05-06 16:20 -5.96172 107.61659 18493 ft 322 kts 269°
2026-05-06 16:20 -5.96173 107.59422 18160 ft 317 kts 269°
2026-05-06 16:21 -5.96174 107.57212 17778 ft 314 kts 269°
2026-05-06 16:21 -5.96175 107.55015 17274 ft 314 kts 269°
2026-05-06 16:21 -5.96175 107.52820 16825 ft 313 kts 269°
2026-05-06 16:21 -5.96175 107.50657 16405 ft 312 kts 269°
2026-05-06 16:22 -5.96175 107.48478 15997 ft 310 kts 269°
2026-05-06 16:22 -5.96175 107.46311 15587 ft 309 kts 269°
2026-05-06 16:22 -5.96174 107.44154 15185 ft 307 kts 269°
2026-05-06 16:22 -5.96173 107.42015 14801 ft 306 kts 269°
2026-05-06 16:23 -5.96173 107.39879 14423 ft 304 kts 269°
2026-05-06 16:23 -5.96172 107.37753 14042 ft 303 kts 269°
2026-05-06 16:23 -5.96171 107.35638 13653 ft 301 kts 269°
2026-05-06 16:23 -5.96171 107.33537 13225 ft 300 kts 269°
2026-05-06 16:24 -5.96171 107.31442 12821 ft 298 kts 269°
2026-05-06 16:24 -5.96171 107.29365 12422 ft 296 kts 269°
2026-05-06 16:24 -5.96169 107.27296 12029 ft 294 kts 269°
2026-05-06 16:24 -5.96167 107.25242 11640 ft 292 kts 269°
2026-05-06 16:25 -5.96164 107.23204 11283 ft 290 kts 269°
2026-05-06 16:25 -5.96161 107.21190 10971 ft 285 kts 269°
2026-05-06 16:25 -5.96158 107.19210 10668 ft 281 kts 269°
2026-05-06 16:25 -5.96155 107.17289 10375 ft 276 kts 270°
2026-05-06 16:26 -5.96152 107.15345 10084 ft 272 kts 270°
2026-05-06 16:26 -5.96149 107.13459 9803 ft 268 kts 270°
2026-05-06 16:26 -5.96146 107.11593 9476 ft 265 kts 270°
2026-05-06 16:26 -5.96316 107.09794 9211 ft 261 kts 255°
2026-05-06 16:27 -5.96884 107.08072 8903 ft 259 kts 248°
2026-05-06 16:27 -5.97550 107.06391 8598 ft 258 kts 246°
2026-05-06 16:27 -5.98225 107.04723 8296 ft 257 kts 247°
2026-05-06 16:27 -5.98893 107.03058 8008 ft 256 kts 247°
2026-05-06 16:28 -5.99549 107.01400 7725 ft 254 kts 248°
2026-05-06 16:28 -6.00197 106.99748 7426 ft 253 kts 248°
2026-05-06 16:28 -6.00840 106.98100 7149 ft 253 kts 248°
2026-05-06 16:28 -6.01480 106.96460 6866 ft 252 kts 248°
2026-05-06 16:29 -6.02119 106.94820 6602 ft 251 kts 248°
2026-05-06 16:29 -6.02757 106.93187 6323 ft 250 kts 247°
2026-05-06 16:29 -6.03402 106.91564 6041 ft 249 kts 247°
2026-05-06 16:29 -6.04048 106.89949 5750 ft 248 kts 247°
2026-05-06 16:30 -6.04700 106.88318 5232 ft 258 kts 247°
2026-05-06 16:30 -6.05151 106.87187 4752 ft 268 kts 247°
2026-05-06 16:30 -6.06095 106.84820 4009 ft 276 kts 246°
2026-05-06 16:30 -6.06849 106.83007 3348 ft 285 kts 246°
2026-05-06 16:31 -6.07605 106.81166 2762 ft 290 kts 246°
2026-05-06 16:31 -6.08354 106.79284 2376 ft 286 kts 248°
2026-05-06 16:31 -6.09078 106.77442 2011 ft 280 kts 248°
2026-05-06 16:31 -6.09780 106.75657 1644 ft 266 kts 248°
2026-05-06 16:32 -6.10450 106.73961 1291 ft 251 kts 248°
2026-05-06 16:32 -6.11073 106.72384 1003 ft 232 kts 247°
2026-05-06 16:32 -6.11644 106.70942 786 ft 213 kts 247°
2026-05-06 16:32 -6.12165 106.69599 590 ft 199 kts 248°
2026-05-06 16:33 -6.12655 106.68332 289 ft 194 kts 246°
2026-05-06 16:33 -6.13152 106.67107 60 ft 183 kts 247°
2026-05-06 16:33 -6.13583 106.66028 47 ft 139 kts 247°
2026-05-06 16:34 -6.14000 106.64986 47 ft 46 kts 248°
2026-05-06 16:34 -6.14117 106.64691 46 ft 44 kts 248°
2026-05-06 16:34 -6.14157 106.64530 46 ft 15 kts 299°
2026-05-06 16:34 -6.14065 106.64471 47 ft 17 kts 339°
2026-05-06 16:35 -6.13989 106.64522 47 ft 17 kts 68°
2026-05-06 16:35 -6.13942 106.64641 47 ft 20 kts 68°
2026-05-06 16:35 -6.13888 106.64779 47 ft 23 kts 68°
2026-05-06 16:35 -6.13848 106.64879 47 ft 20 kts 68°
2026-05-06 16:36 -6.13803 106.64959 47 ft 8 kts 34°
2026-05-06 16:36 -6.13743 106.64954 45 ft 11 kts 338°
2026-05-06 16:36 -6.13660 106.64920 47 ft 15 kts 339°
2026-05-06 16:36 -6.13552 106.64877 47 ft 18 kts 339°
2026-05-06 16:37 -6.13422 106.64826 47 ft 22 kts 338°
2026-05-06 16:37 -6.13273 106.64766 47 ft 24 kts 338°
2026-05-06 16:37 -6.13050 106.64678 47 ft 27 kts 338°
2026-05-06 16:37 -6.12927 106.64628 47 ft 29 kts 338°
2026-05-06 16:38 -6.12738 106.64553 47 ft 30 kts 338°
2026-05-06 16:38 -6.12535 106.64473 47 ft 32 kts 339°
2026-05-06 16:38 -6.12325 106.64389 47 ft 33 kts 338°
2026-05-06 16:38 -6.12199 106.64339 47 ft 14 kts 338°
2026-05-06 16:39 -6.12106 106.64348 47 ft 16 kts 53°
2026-05-06 16:39 -6.12055 106.64466 46 ft 20 kts 69°
2026-05-06 16:39 -6.12000 106.64606 45 ft 23 kts 68°
2026-05-06 16:39 -6.11936 106.64763 47 ft 25 kts 68°
2026-05-06 16:40 -6.11868 106.64934 47 ft 27 kts 68°
2026-05-06 16:40 -6.11826 106.65040 43 ft 28 kts 68°
2026-05-06 16:40 -6.11790 106.65129 47 ft 29 kts 68°
2026-05-06 16:40 -6.11712 106.65327 45 ft 31 kts 68°
2026-05-06 16:41 -6.11653 106.65475 46 ft 12 kts 68°
2026-05-06 16:41 -6.11652 106.65559 46 ft 14 kts 131°
2026-05-06 16:41 -6.11751 106.65605 46 ft 16 kts 158°
2026-05-06 16:41 -6.11794 106.65623 46 ft 7 kts 158°
2026-05-06 16:42 -6.11851 106.65646 46 ft 11 kts 158°
2026-05-06 16:42 -6.11931 106.65678 46 ft 14 kts 159°
2026-05-06 16:42 -6.11996 106.65703 46 ft 3 kts 159°
2026-05-06 16:42 -6.12022 106.65714 46 ft 4 kts 147°
2026-05-06 16:43 -6.12027 106.65741 46 ft 6 kts 85°
2026-05-06 16:43 -6.12026 106.65754 46 ft 2 kts 81°
2026-05-06 16:43 -6.12022 106.65773 46 ft 3 kts 77°
2026-05-06 16:43 -6.12020 106.65782 46 ft 1 kts 77°
2026-05-06 16:44 -6.12019 106.65787 46 ft 1 kts 76°
2026-05-06 16:44 -6.12018 106.65789 46 ft 0 kts 76°
2026-05-06 16:44 -6.12018 106.65790 46 ft 0 kts 76°